Regional Weather Roundup
Issued by NWS

Home | Current Version | Previous Version | Text Only | Print | Product List | Glossary Off
Versions: 1 2 3 4 5 6 7 8 9 10 11 12 13 14 15 16 17 18 19 20 21 22 23 24 25 26 27 28 29 30 31 32 33 34 35 36 37 38 39 40 41 42 43 44 45 46 47 48 49 50

000
ASUS43 KDTX 200310
RWRMI
MICHIGAN HOURLY REGIONAL WEATHER ROUNDUP
NATIONAL WEATHER SERVICE DETROIT/PONTIAC MI
1100 PM EDT FRI SEP 19 2014

NOTE: "FAIR" INDICATES FEW OR NO CLOUDS BELOW 12,000 FEET WITH NO
SIGNIFICANT WEATHER AND/OR OBSTRUCTION TO VISIBILITY.

MIZ047>049-052>055-059>063-066>070-074>076-081>083-200400-
SOUTHEAST LOWER MICHIGAN

CITY           SKY/WX    TMP DP  RH WIND       PRES   REMARKS
ADRIAN         PTCLDY    55  52  89 S3        30.08F
ALMA           MOCLDY    58  51  76 S7        30.01F
ANN ARBOR      PTCLDY    48  45  89 CALM      30.07S FOG
BAD AXE        PTCLDY    55  49  83 S14       30.04F
DETROIT CITY   CLEAR     58  50  75 S5        30.08S
DETROIT        MOCLDY    56  52  86 S3        30.08F
FLINT          CLEAR     53  47  79 S9        30.04F
GROSSE ILE     CLEAR     63  57  82 S6        30.06F
HILLSDALE      PTCLDY    53  51  95 CALM      30.07S
HOWELL         PTCLDY    53  50  90 S7        30.05F

CITY           SKY/WX    TMP DP  RH WIND       PRES   REMARKS
JACKSON        PTCLDY    53  50  89 S8        30.06F
LAMBERTVILLE   CLEAR     52  50  93 CALM      30.08F FOG
LANSING        PTCLDY    57  49  74 S13       30.04F
LAPEER         NOT AVBL
MASON          PTCLDY    54  50  87 S9        30.04F
MONROE         CLEAR     54  52  94 CALM      30.06F
MT. CLEMENS    CLEAR     55  55 100 S6        30.06F
PONTIAC        MOCLDY    55  49  80 S5        30.07S
PORT HOPE        N/A     57  48  72 VRB7G21   30.01F
PORT HURON     CLEAR     52  50  93 CALM      30.09R
TRI CITIES     PTCLDY    59  49  69 S15       30.02S
YPSILANTI      PTCLDY    58  51  78 S6        30.08S
$$
MIZ043>046-050>051-056>058-064>065-071>073-077>080-200400-
SOUTHWEST LOWER MICHIGAN

CITY           SKY/WX    TMP DP  RH WIND       PRES   REMARKS
BATTLE CREEK   CLEAR     59  48  67 S12       30.04F
BENTON HARBOR  PTCLDY    57  49  74 SE7       30.01S
BIG RAPIDS     MOCLDY    60  53  77 S8        29.95F
COLDWATER      PTCLDY    55  49  78 SE5       30.06S
HOLLAND        PTCLDY    60  50  69 S10       29.99F
GRAND RAPIDS   MOCLDY    61  51  70 S12       30.00F
KALAMAZOO      PTCLDY    60  48  64 S9        30.04S
MARSHALL       PTCLDY    56  47  73 S6        30.04F
MUSKEGON       MOCLDY    66  48  52 S17G24    29.96F
$$
MIZ016>042-200400-
NORTHERN LOWER MICHIGAN

CITY           SKY/WX    TMP DP  RH WIND       PRES   REMARKS
ALPENA         PTCLDY    58  45  62 S16G23    29.90F
BEAVER ISLAND  CLOUDY    64  53  66 S17G24    29.80F
BELLAIRE       CLOUDY    64  51  63 S10G17    29.87S
CADILLAC       MOCLDY    58  51  78 S10G18    29.92F
CHARLEVOIX     LGT RAIN  64  54  70 SW10G21   29.88S
FRANKFORT      MOCLDY    67  49  51 S14G23    29.87F
GAYLORD        CLOUDY    60  49  66 S21G29    29.89S
GRAYLING       MOCLDY    60  50  69 S10G21    29.92S
HARBOR SPRINGS CLOUDY    62  54  74 SW12      29.86F
HOUGHTON LAKE  MOCLDY    58  50  75 S13       29.95F
MANISTEE       MOCLDY    64  48  55 S8G20     29.90F
OSCODA         MOCLDY    57  49  72 S9G18     29.95F
PELLSTON       MOCLDY    61  53  75 S10G23    29.85R
TRAVERSE CITY  MOCLDY    66  49  54 S9G24     29.86S
$$
MIZ007>008-015-200400-
EASTERN UPPER MICHIGAN

CITY           SKY/WX    TMP DP  RH WIND       PRES   REMARKS
KINROSS        CLOUDY    57  55  94 SE9       29.85F
MACKINAC ISLAN LGT RAIN  60  54  78 S9G16     29.85R
NEWBERRY       CLOUDY    61  51  69 S30G40    29.77F
S. S. MARIE    LGT RAIN  56  52  86 SE9       29.84F
$$
MIZ004>006-011>014-085-200400-
CENTRAL UPPER MICHIGAN

CITY           SKY/WX    TMP DP  RH WIND       PRES   REMARKS
MANISTIQUE     CLOUDY    60  55  81 SW16G25   29.77F
ESCANABA       CLOUDY    61  54  77 SW15G22   29.76F
MENOMINEE      CLOUDY    63  52  67 SW12G18   29.77F
SAWYER-GWINN   CLOUDY    61  53  74 S15G23    29.72S
$$
MIZ001>003-009>011-084-200400-
WESTERN UPPER MICHIGAN

CITY           SKY/WX    TMP DP  RH WIND       PRES   REMARKS
IRON MOUNTAIN  CLOUDY    65  52  62 S9        29.73R
HOUGHTON       LGT RAIN  63  56  78 SW9       29.65S
COPPER HARBOR    N/A     63  57  81 W9G17     29.62S
IRONWOOD       CLOUDY    66  59  77 SW8G16    29.64F
$$

ABBREVIATIONS USED IN REMARKS
   TC - TEMPERATURE IN CELSIUS
  WCI - WIND CHILL INDEX
   HX - HEAT INDEX
  VSB - VISIBILITY




USA.gov is the U.S. government's official web portal to all federal, state and local government web resources and services.